TimePDT,TemperatureF,Dew PointF,Humidity,Sea Level PressureIn,VisibilityMPH,Wind Direction,Wind SpeedMPH,Gust SpeedMPH,PrecipitationIn,Events,Conditions,WindDirDegrees,DateUTC
12:52 AM,52.0,36.0,54,30.15,10.0,SSE,9.2,-,N/A,,Partly Cloudy,160,2013-04-10 07:52:00
1:52 AM,48.9,36.0,61,30.13,10.0,SSE,8.1,-,N/A,,Clear,150,2013-04-10 08:52:00
2:52 AM,48.0,37.0,66,30.12,10.0,SSE,5.8,-,N/A,,Partly Cloudy,160,2013-04-10 09:52:00
3:52 AM,48.9,36.0,61,30.09,10.0,SSE,10.4,-,N/A,,Clear,160,2013-04-10 10:52:00
4:52 AM,46.9,36.0,66,30.07,10.0,SE,8.1,-,N/A,,Clear,140,2013-04-10 11:52:00
5:52 AM,46.9,36.0,66,30.05,10.0,SE,9.2,-,N/A,,Partly Cloudy,140,2013-04-10 12:52:00
6:52 AM,46.9,36.0,66,30.02,10.0,SSE,9.2,-,N/A,,Clear,150,2013-04-10 13:52:00
7:52 AM,48.9,36.0,61,30.01,10.0,South,9.2,-,N/A,,Clear,170,2013-04-10 14:52:00
8:52 AM,50.0,36.0,59,29.99,10.0,South,10.4,-,N/A,,Clear,170,2013-04-10 15:52:00
9:52 AM,53.1,37.0,55,29.92,10.0,South,11.5,-,N/A,,Clear,180,2013-04-10 16:52:00
10:52 AM,57.0,39.0,51,29.88,10.0,South,16.1,23.0,N/A,,Clear,180,2013-04-10 17:52:00
11:52 AM,60.1,42.1,51,29.89,10.0,SSW,11.5,-,N/A,,Overcast,200,2013-04-10 18:52:00
12:52 PM,66.0,44.1,45,29.85,10.0,SW,23.0,31.1,0.00,,Mostly Cloudy,230,2013-04-10 19:52:00
1:52 PM,68.0,36.0,31,29.85,10.0,West,29.9,41.4,N/A,,Partly Cloudy,260,2013-04-10 20:52:00
2:52 PM,66.9,35.1,31,29.86,8.0,West,32.2,44.9,N/A,,Scattered Clouds,260,2013-04-10 21:52:00
3:52 PM,66.9,36.0,32,29.87,10.0,West,15.0,29.9,N/A,,Clear,260,2013-04-10 22:52:00
4:52 PM,66.9,33.1,28,29.90,10.0,West,19.6,27.6,N/A,,Clear,280,2013-04-10 23:52:00
5:52 PM,64.0,32.0,30,29.94,10.0,NNW,21.9,28.8,N/A,,Clear,330,2013-04-11 00:52:00
6:52 PM,59.0,30.9,35,29.97,10.0,NW,16.1,24.2,N/A,,Clear,310,2013-04-11 01:52:00
7:52 PM,55.9,28.0,34,29.99,10.0,WNW,13.8,-,N/A,,Clear,290,2013-04-11 02:52:00
8:52 PM,53.1,28.0,38,30.02,10.0,WNW,12.7,-,N/A,,Clear,300,2013-04-11 03:52:00
9:52 PM,51.1,30.0,44,30.04,10.0,West,13.8,-,N/A,,Clear,270,2013-04-11 04:52:00
10:52 PM,46.9,33.1,59,30.07,10.0,SE,6.9,-,N/A,,Clear,130,2013-04-11 05:52:00
11:52 PM,46.9,33.1,59,30.07,10.0,South,5.8,-,N/A,,Clear,190,2013-04-11 06:52:00